Yuba City, California, United States (95991)
Lat: 39.14N, Lon: 121.62W
Wx Zone: CAZ016
Local Info
Past Weather Observations for Sunday, November 16, 2014

NOTE: This archive is for the closest National Weather Service station to Yuba City. Information may differ from the station used for current weather conditions.

Click here for Long-term Archive

Time Weather Temperature Dewpoint Humidity Pressure Winds Precip Visibility
23:53
Clear
43°F / 6°C 39°F / 4°C 87% 30.3 in
(1026 mb)
N 3.5 mph
(N 6 kph)
- 9SM
22:53
Clear
43°F / 6°C 39°F / 4°C 87% 30.3 in
(1026 mb)
Calm - 10SM
21:53
Clear
45°F / 7°C 39°F / 4°C 81% 30.3 in
(1026 mb)
Calm - 7SM
20:53
Clear
45°F / 7°C 43°F / 6°C 93% 30.27 in
(1025 mb)
NW 3.5 mph
(NW 6 kph)
- 10SM
19:53
Clear
48°F / 9°C 43°F / 6°C 82% 30.27 in
(1025 mb)
Calm - 10SM
18:53
Clear
52°F / 11°C 45°F / 7°C 77% 30.27 in
(1025 mb)
Calm - 10SM
17:53
Clear
55°F / 13°C 43°F / 6°C 63% 30.24 in
(1024 mb)
Calm - 10SM
16:53
Clear
57°F / 14°C 43°F / 6°C 59% 30.24 in
(1024 mb)
SE 4.6 mph
(SE 7 kph)
- 10SM
15:53
Clear
61°F / 16°C 39°F / 4°C 45% 30.24 in
(1024 mb)
SE 4.6 mph
(SE 7 kph)
- 10SM
14:53
Clear
63°F / 17°C 25°F / -4°C 24% 30.24 in
(1024 mb)
SSE 4.6 mph
(SSE 7 kph)
- 10SM
13:53
Clear
63°F / 17°C 23°F / -5°C 22% 30.24 in
(1024 mb)
ESE 4.6 mph
(ESE 7 kph)
- 10SM
12:53
Clear
63°F / 17°C 23°F / -5°C 22% 30.24 in
(1024 mb)
Variable 4.6 mph
(Variable 7 kph)
- 10SM
11:53
Clear
63°F / 17°C 25°F / -4°C 24% 30.27 in
(1025 mb)
Calm - 10SM
10:53
Clear
59°F / 15°C 27°F / -3°C 29% 30.27 in
(1025 mb)
Variable 4.6 mph
(Variable 7 kph)
- 10SM
09:53
Clear
55°F / 13°C 27°F / -3°C 33% 30.27 in
(1025 mb)
NNW 5.8 mph
(NNW 9 kph)
- 10SM
08:53
Clear
52°F / 11°C 27°F / -3°C 38% 30.24 in
(1024 mb)
NW 12.7 mph
(NW 20 kph)
- 10SM
07:53
Clear
48°F / 9°C 28°F / -2°C 46% 30.21 in
(1023 mb)
NNW 13.8 mph
(NNW 22 kph)
- 10SM
06:53
Clear
46°F / 8°C 27°F / -3°C 46% 30.18 in
(1022 mb)
NNW 16.1 mph
(NNW 26 kph)
- 10SM
05:53
Clear
46°F / 8°C 28°F / -2°C 50% 30.18 in
(1022 mb)
NNW 17.3 mph
(NNW 28 kph)
- 10SM
04:53
Clear
46°F / 8°C 32°F / 0°C 57% 30.18 in
(1022 mb)
NNW 17.3 mph
(NNW 28 kph)
- 10SM
03:53
Clear
46°F / 8°C 36°F / 2°C 66% 30.18 in
(1022 mb)
NNW 16.1 mph
(NNW 26 kph)
- 10SM
02:53
Clear
48°F / 9°C 37°F / 3°C 66% 30.21 in
(1023 mb)
NNW 13.8 mph
(NNW 22 kph)
- 10SM
01:53
Clear
52°F / 11°C 28°F / -2°C 41% 30.21 in
(1023 mb)
NNW 12.7 mph
(NNW 20 kph)
- 10SM
00:53
Clear
52°F / 11°C 36°F / 2°C 54% 30.21 in
(1023 mb)
N 10.4 mph
(N 17 kph)
- 10SM
Time Weather Temperature Dewpoint Humidity Pressure Winds Precip Visibility


Weather for websites

WeatherForYou.com, LLC is not responsible for any damages or problems caused by this service. Current weather conditions are obtained from the closest station including government and personal stations which may have varying degrees of accuracy. Weather forecasts are derived from the NOAA NDFD. Like all things, this site belongs to Jesus Christ... He just trusts me to maintain it. If you have any questions or comments email webmaster@weatherforyou.com

Copyright © 2014, WeatherForYou.com LLC. All rights reserved.